This is the latest recevied weather packets stored in our database for station/object HK5VD-30. If no packets are shown the sender has not sent any weather packets the latest 10 day(s).
| Time | Temp. | Humidity | Pressure | Rain* | Wind** | Luminosity | Snow |
|---|---|---|---|---|---|---|---|
| 1777862000 | 21.67° C | 88% | 1014 hPa | 0 mm | - | - | - |
| 1777860199 | 23.89° C | 83% | 1014 hPa | 0 mm | - | - | - |
| 1777858398 | 23.33° C | 83% | 1014 hPa | 0 mm | - | - | - |
| 1777856596 | 22.78° C | 83% | 1012 hPa | 0 mm | - | - | - |
| 1777854796 | 25.56° C | 65% | 1011 hPa | 0 mm | - | - | - |
| 1777852994 | 26.67° C | 61% | 1011 hPa | 0 mm | - | - | - |
| 1777851193 | 26.67° C | 61% | 1011 hPa | 0 mm | - | - | - |
| 1777849392 | 28.89° C | 58% | 1010 hPa | 0 mm | - | - | - |
| 1777847591 | 28.89° C | 58% | 1010 hPa | 0 mm | - | - | - |
| 1777845790 | 30° C | 54% | 1009 hPa | 0 mm | - | - | - |
| 1777843989 | 30° C | 54% | 1009 hPa | 0 mm | - | - | - |
| 1777842188 | 28.89° C | 58% | 1008 hPa | 0 mm | - | - | - |
| 1777840387 | 30.56° C | 94% | 1008 hPa | 0 mm | - | - | - |
| 1777838586 | 30° C | 94% | 1008 hPa | 0 mm | - | - | - |
| 1777836785 | 29.44° C | 94% | 1009 hPa | 0 mm | - | - | - |
| 1777834984 | 28.89° C | 94% | 1009 hPa | 0 mm | - | - | - |
| 1777833183 | 28.33° C | 94% | 1009 hPa | 0 mm | - | - | - |
| 1777831382 | 27.78° C | 94% | 1010 hPa | 0 mm | - | - | - |
| 1777829581 | 27.22° C | 94% | 1012 hPa | 0 mm | - | - | - |
| 1777827780 | 26.67° C | 94% | 1012 hPa | 0 mm | - | - | - |
| 1777825978 | 26.11° C | 94% | 1012 hPa | 0 mm | - | - | - |
| 1777824177 | 25.56° C | 94% | 1013 hPa | 0 mm | - | - | - |
| 1777822376 | 25° C | 94% | 1014 hPa | 0 mm | - | - | - |
| 1777820575 | 24.44° C | 94% | 1015 hPa | 0 mm | - | - | - |
| 1777818774 | 23.89° C | 94% | 1015 hPa | 0 mm | - | - | - |
* Rain latest hour (hover to see other rain measurements)
** Current wind speed in m/s (hover to see current wind gust speed)